1491454800.96,65429,13.13,72780.3,-5.25,-5.69,-5.65,0,*52
1491454802.23,65430,13.13,72782.3,-5.27,-5.69,-5.69,0,*54
1491454803.51,65431,13.13,72782.3,-5.27,-5.77,-5.69,0,*5A
1491454804.76,65432,13.13,72782.5,-5.21,-5.77,-5.73,0,*54
1491454806.03,65433,13.13,72780.0,-5.27,-5.81,-5.81,0,*57
1491454807.28,65434,13.13,72784.8,-5.25,-5.77,-5.77,0,*52
1491454808.53,65435,13.13,72780.3,-5.25,-5.77,-5.65,0,*50
1491454809.78,65436,13.13,72782.5,-5.25,-5.77,-5.69,0,*5F
1491454811.06,65437,13.13,72780.5,-5.27,-5.65,-5.69,0,*5F
1491454812.31,65438,13.13,72782.3,-5.25,-5.69,-5.69,0,*5E
1491454813.56,65439,13.13,72780.0,-5.25,-5.69,-5.65,0,*53
1491454814.81,65440,13.13,72780.5,-5.25,-5.65,-5.69,0,*5D
1491454816.07,65441,13.13,72780.8,-5.25,-5.69,-5.69,0,*50
1491454817.31,65442,13.13,72782.3,-5.25,-5.77,-5.77,0,*53
1491454818.57,65443,13.13,72786.0,-5.25,-5.81,-5.77,0,*5B
1491454819.82,65444,13.13,72780.3,-5.25,-5.81,-5.81,0,*55
1491454821.07,65445,13.13,72780.0,-5.25,-5.77,-5.81,0,*5D
1491454822.32,65446,13.13,72780.0,-5.25,-5.81,-5.77,0,*5E
1491454823.57,65447,13.13,72786.3,-5.25,-5.77,-5.77,0,*56
1491454824.82,65448,13.13,72784.0,-5.25,-5.69,-5.69,0,*59
1491454826.07,65449,13.06,72778.8,-5.25,-5.69,-5.69,0,*58
1491454827.33,65450,13.13,72780.5,-5.25,-5.77,-5.69,0,*5F
1491454828.58,65451,13.13,72782.0,-5.25,-5.77,-5.69,0,*5E
1491454829.83,65452,13.13,72780.8,-5.25,-5.69,-5.69,0,*52
1491454831.08,65453,13.13,72782.8,-5.25,-5.77,-5.69,0,*5C
1491454832.33,65454,13.13,72784.0,-5.21,-5.77,-5.73,0,*54
1491454833.58,65455,13.13,72784.0,-5.21,-5.89,-5.77,0,*50
1491454834.84,65456,13.13,72786.3,-5.21,-5.85,-5.85,0,*52
1491454836.09,65457,13.13,72786.3,-5.25,-5.89,-5.89,0,*57
1491454837.35,65458,13.13,72784.8,-5.25,-5.77,-5.81,0,*51
1491454838.6,65459,13.13,72786.0,-5.25,-5.77,-5.69,0,*56
1491454839.87,65460,13.06,72782.8,-5.27,-5.77,-5.69,0,*5E
1491454841.12,65461,13.13,72784.0,-5.25,-5.77,-5.77,0,*52
1491454842.37,65462,13.13,72784.8,-5.21,-5.65,-5.65,0,*55
1491454843.63,65463,13.13,72786.3,-5.21,-5.65,-5.61,0,*50
1491454844.88,65464,13.06,72780.3,-5.21,-5.65,-5.65,0,*53
1491454846.13,65465,13.13,72784.3,-5.25,-5.77,-5.69,0,*59
1491454847.38,65466,13.13,72788.8,-5.25,-5.69,-5.69,0,*55
1491454848.63,65467,13.13,72784.3,-5.21,-5.65,-5.65,0,*50
1491454849.89,65468,13.06,72784.0,-5.21,-5.65,-5.65,0,*5F
1491454851.13,65469,13.13,72786.5,-5.21,-5.65,-5.73,0,*59
1491454852.38,65470,13.13,72786.0,-5.21,-5.73,-5.73,0,*56
1491454853.62,65471,13.06,72782.0,-5.21,-5.73,-5.73,0,*57
1491454854.87,65472,13.06,72782.5,-5.21,-5.77,-5.77,0,*54
1491454856.12,65473,13.13,72784.0,-5.21,-5.85,-5.73,0,*5C
1491454857.37,65474,13.06,72782.8,-5.21,-5.89,-5.89,0,*52
1491454858.6,65475,13.06,72782.5,-5.21,-5.97,-5.89,0,*5C
1491454859.86,65476,13.06,72786.3,-5.21,-5.89,-5.85,0,*5C
1491454861.12,65477,13.13,72786.5,-5.21,-5.85,-5.89,0,*5D
1491454862.36,65478,13.13,72786.5,-5.21,-5.77,-5.77,0,*5E
1491454863.61,65479,13.06,72782.5,-5.21,-5.77,-5.77,0,*5F
1491454864.86,65480,13.06,72782.0,-5.21,-5.77,-5.73,0,*5D
1491454866.11,65481,13.13,72786.0,-5.21,-5.65,-5.77,0,*5B
1491454867.35,65482,13.06,72782.5,-5.21,-5.73,-5.73,0,*5B
1491454868.6,65483,13.13,72784.3,-5.21,-5.77,-5.73,0,*5E
1491454869.84,65484,13.13,72782.3,-5.21,-5.73,-5.65,0,*5A
1491454871.09,65485,13.06,72780.0,-5.21,-5.73,-5.65,0,*5B
1491454872.34,65486,13.13,72784.0,-5.21,-5.61,-5.61,0,*5F
1491454873.59,65487,13.13,72782.8,-5.21,-5.73,-5.65,0,*59
1491454874.84,65488,13.13,72786.0,-5.21,-5.77,-5.65,0,*52
1491454876.08,65489,13.06,72782.0,-5.21,-5.77,-5.77,0,*50
1491454877.33,65490,13.13,72784.0,-5.21,-5.77,-5.77,0,*58
1491454878.58,65491,13.13,72784.5,-5.25,-5.89,-5.77,0,*5C
1491454879.83,65492,13.06,72782.3,-5.25,-5.77,-5.81,0,*57
1491454881.08,65493,13.13,72780.3,-5.21,-5.77,-5.77,0,*5B
1491454882.33,65494,13.06,72780.8,-5.21,-5.77,-5.77,0,*5C
1491454883.59,65495,13.06,72776.8,-5.21,-5.77,-5.85,0,*50
1491454884.83,65496,13.13,72780.3,-5.21,-5.73,-5.73,0,*5E
1491454886.08,65497,13.06,72776.3,-5.21,-5.77,-5.73,0,*5B
1491454887.32,65498,13.06,72782.5,-5.21,-5.73,-5.65,0,*57
1491454888.58,65499,13.13,72782.3,-5.21,-5.65,-5.61,0,*55
1491454889.83,65500,13.06,72778.5,-5.21,-5.65,-5.65,0,*50
1491454891.07,65501,13.13,72780.8,-5.21,-5.73,-5.65,0,*56
1491454892.33,65502,13.13,72780.0,-5.21,-5.65,-5.61,0,*56
1491454893.58,65503,13.06,72778.8,-5.21,-5.61,-5.61,0,*53
1491454894.81,65504,13.13,72780.5,-5.21,-5.61,-5.51,0,*57
1491454896.06,65505,13.06,72776.5,-5.21,-5.61,-5.65,0,*51
1491454897.31,65506,13.13,72782.5,-5.21,-5.65,-5.65,0,*56
1491454898.56,65507,13.06,72782.8,-5.21,-5.65,-5.65,0,*57
1491454899.81,65508,13.06,72778.0,-5.21,-5.65,-5.65,0,*58
1491454901.05,65509,13.06,72782.8,-5.21,-5.73,-5.65,0,*5E
1491454902.33,65510,13.13,72782.5,-5.19,-5.61,-5.61,0,*5A
1491454903.58,65511,13.06,72782.0,-5.17,-5.69,-5.61,0,*5D
1491454904.85,65512,13.13,72784.5,-5.19,-5.73,-5.73,0,*58
1491454906.09,65513,13.13,72782.5,-5.21,-5.73,-5.77,0,*56
1491454907.34,65514,13.06,72780.0,-5.21,-5.77,-5.73,0,*51
1491454908.58,65515,13.06,72780.0,-5.21,-5.73,-5.73,0,*54
1491454909.84,65516,13.13,72782.0,-5.19,-5.73,-5.73,0,*5C
1491454911.11,65517,13.06,72782.0,-5.19,-5.73,-5.73,0,*5D
1491454912.35,65518,13.06,72782.0,-5.21,-5.73,-5.73,0,*59
1491454913.62,65519,13.13,72780.8,-5.19,-5.77,-5.73,0,*57
1491454914.89,65520,13.06,72778.0,-5.19,-5.73,-5.73,0,*59
1491454916.16,65521,13.06,72782.5,-5.19,-5.77,-5.73,0,*5C
1491454917.42,65522,13.13,72784.0,-5.19,-5.73,-5.65,0,*5C
1491454918.69,65523,13.13,72782.0,-5.19,-5.73,-5.65,0,*5D
1491454919.96,65524,13.13,72780.8,-5.19,-5.73,-5.65,0,*5A
1491454921.23,65525,13.06,72780.5,-5.19,-5.77,-5.73,0,*58
1491454922.48,65526,13.06,72780.3,-5.21,-5.77,-5.77,0,*54
1491454923.76,65527,13.13,72782.0,-5.19,-5.89,-5.85,0,*52
1491454925.0,65528,13.06,72782.3,-5.21,-5.73,-5.73,0,*5A
1491454926.25,65529,13.06,72778.3,-5.21,-5.77,-5.77,0,*5B
1491454927.52,65530,13.06,72782.3,-5.19,-5.77,-5.73,0,*5C
1491454928.79,65531,13.06,72782.0,-5.19,-5.77,-5.77,0,*59
1491454930.04,65532,13.06,72780.3,-5.21,-5.77,-5.73,0,*55
1491454931.28,65533,13.06,72780.0,-5.21,-5.73,-5.73,0,*50
1491454932.54,65534,13.13,72782.3,-5.19,-5.73,-5.73,0,*5C
1491454933.78,65535,13.06,72780.5,-5.21,-5.73,-5.73,0,*56
1491454935.03,0,13.06,72782.5,-5.19,-5.73,-5.73,0,*5D
1491454936.27,1,13.06,72776.3,-5.19,-5.73,-5.77,0,*58
1491454937.49,2,13.06,72776.3,-5.21,-5.77,-5.77,0,*54
1491454938.72,3,13.13,72782.0,-5.21,-5.77,-5.73,0,*51
1491454939.94,4,13.06,72778.3,-5.21,-5.73,-5.73,0,*52
1491454941.19,5,13.06,72776.5,-5.19,-5.77,-5.73,0,*5C
1491454942.4,6,13.13,72782.3,-5.21,-5.73,-5.73,0,*50
1491454943.63,7,13.06,72778.0,-5.21,-5.77,-5.77,0,*51
1491454944.88,8,13.06,72778.0,-5.19,-5.77,-5.77,0,*55
1491454946.13,9,13.06,72778.8,-5.19,-5.77,-5.77,0,*54
1491454947.38,10,13.06,72778.5,-5.19,-5.77,-5.65,0,*6F
1491454948.62,11,13.13,72778.5,-5.21,-5.73,-5.61,0,*65
1491454949.85,12,13.13,72778.5,-5.21,-5.73,-5.65,0,*62
1491454951.07,13,13.06,72774.0,-5.21,-5.73,-5.65,0,*63
1491454952.33,14,13.06,72774.8,-5.19,-5.65,-5.61,0,*6C
1491454953.59,15,13.06,72778.5,-5.19,-5.61,-5.61,0,*69
1491454954.85,16,13.13,72778.5,-5.19,-5.65,-5.65,0,*6A
1491454956.1,17,13.06,72776.3,-5.19,-5.61,-5.65,0,*6F
1491454957.34,18,13.06,72772.0,-5.21,-5.65,-5.61,0,*6B
1491454958.6,19,13.06,72774.8,-5.19,-5.65,-5.61,0,*61
1491454959.86,20,13.06,72776.3,-5.19,-5.73,-5.61,0,*6C
1491454961.12,21,13.06,72776.5,-5.19,-5.73,-5.61,0,*6D
1491454962.37,22,13.06,72778.0,-5.19,-5.65,-5.65,0,*6D
1491454963.63,23,13.06,72774.8,-5.19,-5.77,-5.73,0,*68
1491454964.88,24,13.13,72780.0,-5.19,-5.77,-5.73,0,*6F
1491454966.13,25,13.06,72774.0,-5.19,-5.73,-5.73,0,*6A
1491454967.38,26,13.06,72778.5,-5.19,-5.73,-5.61,0,*6A
1491454968.64,27,13.06,72776.8,-5.19,-5.65,-5.65,0,*68
1491454969.89,28,13.06,72776.0,-5.19,-5.73,-5.65,0,*60
1491454971.14,29,13.06,72776.0,-5.19,-5.73,-5.65,0,*61
1491454972.39,30,13.06,72774.3,-5.19,-5.73,-5.77,0,*6A
1491454973.64,31,13.13,72776.0,-5.19,-5.73,-5.77,0,*6B
1491454974.89,32,13.06,72772.0,-5.19,-5.73,-5.73,0,*6C
1491454976.13,33,13.13,72778.3,-5.19,-5.73,-5.77,0,*69
1491454977.36,34,13.06,72772.3,-5.21,-5.73,-5.73,0,*61
1491454978.61,35,13.06,72774.3,-5.19,-5.77,-5.73,0,*6F
1491454979.87,36,13.13,72776.3,-5.19,-5.77,-5.77,0,*68
1491454981.1,37,13.06,72776.8,-5.17,-5.69,-5.61,0,*6F
1491454982.36,38,13.13,72778.3,-5.19,-5.65,-5.65,0,*66
1491454983.62,39,13.13,72776.0,-5.19,-5.65,-5.61,0,*63
1491454984.88,40,13.06,72772.5,-5.19,-5.61,-5.61,0,*69
1491454986.11,41,13.13,72776.3,-5.19,-5.61,-5.51,0,*6B
1491454987.37,42,13.13,72776.0,-5.19,-5.65,-5.61,0,*6F
1491454988.61,43,13.06,72774.8,-5.19,-5.51,-5.65,0,*6D
1491454989.81,44,13.06,72776.5,-5.19,-5.51,-5.47,0,*6A
1491454991.02,45,13.06,72774.8,-5.21,-5.61,-5.51,0,*64
1491454992.26,46,13.06,72776.0,-5.19,-5.61,-5.51,0,*6C
1491454993.47,47,13.13,72776.3,-5.19,-5.51,-5.51,0,*6E
1491454994.67,48,13.06,72776.8,-5.19,-5.51,-5.47,0,*66
1491454995.86,49,13.06,72778.0,-5.17,-5.47,-5.47,0,*6E
1491454997.04,50,13.06,72774.5,-5.17,-5.55,-5.47,0,*65
1491454998.22,51,13.06,72778.5,-5.17,-5.47,-5.43,0,*63
1491454999.4,52,13.06,72778.0,-5.17,-5.47,-5.47,0,*64
1491455000.58,53,13.06,72772.8,-5.17,-5.47,-5.47,0,*65
1491455001.78,54,13.06,72776.0,-5.17,-5.55,-5.55,0,*62
1491455002.96,55,13.06,72774.8,-5.13,-5.51,-5.43,0,*64
1491455004.14,56,13.13,72776.8,-5.13,-5.51,-5.43,0,*67
1491455005.35,57,13.06,72778.0,-5.17,-5.61,-5.55,0,*66
1491455006.56,58,13.06,72778.0,-5.17,-5.61,-5.55,0,*69
1491455007.75,59,13.06,72776.5,-5.17,-5.55,-5.55,0,*6F
1491455008.94,60,13.06,72776.3,-5.13,-5.55,-5.51,0,*65
1491455010.13,61,13.06,72778.5,-5.17,-5.55,-5.55,0,*64
1491455011.35,62,13.06,72776.8,-5.17,-5.55,-5.61,0,*60
1491455012.53,63,13.06,72778.5,-5.13,-5.51,-5.51,0,*62
1491455013.72,64,13.06,72774.8,-5.13,-5.55,-5.51,0,*61
1491455014.91,65,13.06,72776.5,-5.13,-5.51,-5.55,0,*60
1491455016.1,66,13.06,72778.5,-5.17,-5.55,-5.55,0,*63
1491455017.29,67,13.06,72776.3,-5.17,-5.55,-5.55,0,*62
1491455018.48,68,13.13,72780.0,-5.13,-5.51,-5.55,0,*6D
1491455019.68,69,13.06,72776.5,-5.13,-5.55,-5.55,0,*68
1491455020.86,70,13.06,72778.3,-5.13,-5.55,-5.51,0,*64
1491455022.05,71,13.06,72778.0,-5.13,-5.51,-5.51,0,*61
1491455023.24,72,13.06,72780.5,-5.13,-5.55,-5.55,0,*62
1491455024.43,73,13.06,72782.0,-5.13,-5.51,-5.51,0,*63
1491455025.62,74,13.06,72782.3,-5.17,-5.55,-5.55,0,*60
1491455026.81,75,13.13,72782.3,-5.13,-5.55,-5.51,0,*61
1491455028.02,76,13.06,72780.5,-5.17,-5.61,-5.55,0,*65
1491455029.21,77,13.13,72780.8,-5.13,-5.55,-5.55,0,*67
1491455030.4,78,13.06,72780.3,-5.13,-5.51,-5.55,0,*6C
1491455031.63,79,13.06,72782.5,-5.17,-5.73,-5.61,0,*6E
1491455032.86,80,13.06,72782.5,-5.17,-5.73,-5.69,0,*60
1491455034.09,81,13.06,72776.3,-5.13,-5.69,-5.65,0,*62
1491455035.32,82,13.06,72780.5,-5.13,-5.65,-5.69,0,*61
1491455036.55,83,13.06,72780.5,-5.13,-5.69,-5.65,0,*60
1491455037.78,84,13.06,72780.5,-5.13,-5.65,-5.65,0,*6B
1491455039.01,85,13.06,72782.3,-5.17,-5.65,-5.69,0,*62
1491455040.25,86,13.06,72776.0,-5.13,-5.69,-5.69,0,*69
1491455041.48,87,13.06,72776.3,-5.17,-5.85,-5.81,0,*68
1491455042.71,88,13.13,72782.0,-5.13,-5.81,-5.81,0,*67
1491455043.94,89,13.13,72780.5,-5.13,-5.81,-5.77,0,*6F
1491455045.18,90,13.06,72780.0,-5.17,-5.85,-5.81,0,*6E
1491455046.41,91,13.06,72780.3,-5.13,-5.77,-5.77,0,*6F
1491455047.64,92,13.06,72776.8,-5.13,-5.81,-5.77,0,*65
1491455048.87,93,13.06,72780.8,-5.17,-5.81,-5.69,0,*6F
1491455050.1,94,13.06,72780.5,-5.17,-5.81,-5.69,0,*68
1491455051.33,95,13.06,72782.3,-5.17,-5.73,-5.69,0,*64
1491455052.55,96,13.06,72776.3,-5.17,-5.73,-5.73,0,*6C
1491455053.78,97,13.06,72780.5,-5.17,-5.69,-5.69,0,*6D
1491455055.01,98,13.06,72776.5,-5.17,-5.69,-5.73,0,*69
1491455056.24,99,13.06,72776.0,-5.13,-5.69,-5.69,0,*67
1491455057.48,100,13.06,72778.3,-5.13,-5.65,-5.65,0,*56
1491455058.71,101,13.06,72776.5,-5.17,-5.69,-5.73,0,*58
1491455059.95,102,13.06,72780.3,-5.13,-5.65,-5.65,0,*54
1491455061.19,103,13.06,72776.5,-5.17,-5.69,-5.69,0,*51
1491455062.4,104,13.06,72776.5,-5.17,-5.69,-5.55,0,*59
1491455063.62,105,13.06,72776.0,-5.17,-5.61,-5.55,0,*50
1491455064.82,106,13.06,72774.0,-5.17,-5.55,-5.55,0,*54
1491455066.02,107,13.06,72778.0,-5.13,-5.55,-5.55,0,*51
1491455067.21,108,13.06,72780.5,-5.13,-5.51,-5.51,0,*5E
1491455068.4,109,13.06,72776.5,-5.13,-5.51,-5.51,0,*5F
1491455069.59,110,13.06,72778.8,-5.13,-5.51,-5.43,0,*54
1491455070.77,111,13.06,72776.0,-5.13,-5.43,-5.43,0,*56
1491455071.95,112,13.06,72778.8,-5.13,-5.51,-5.43,0,*56
1491455073.15,113,13.06,72780.5,-5.13,-5.55,-5.51,0,*50
1491455074.35,114,13.06,72782.5,-5.17,-5.55,-5.55,0,*57
1491455075.56,115,13.06,72774.5,-5.13,-5.65,-5.55,0,*51
1491455076.8,116,13.06,72776.3,-5.13,-5.65,-5.65,0,*51
1491455078.04,117,13.06,72776.0,-5.17,-5.65,-5.65,0,*54
1491455079.28,118,13.13,72782.5,-5.17,-5.69,-5.61,0,*53
1491455080.48,119,13.13,72780.5,-5.13,-5.55,-5.55,0,*5E
1491455081.7,120,13.06,72776.3,-5.13,-5.65,-5.55,0,*57
1491455082.94,121,13.06,72778.8,-5.17,-5.69,-5.61,0,*59
1491455084.13,122,13.13,72782.0,-5.13,-5.51,-5.51,0,*56
1491455085.32,123,13.13,72778.0,-5.13,-5.55,-5.51,0,*53
1491455086.54,124,13.13,72778.5,-5.13,-5.51,-5.65,0,*57
1491455087.73,125,13.13,72782.3,-5.13,-5.55,-5.51,0,*55
1491455088.93,126,13.06,72778.0,-5.13,-5.55,-5.55,0,*52
1491455090.13,127,13.06,72778.8,-5.13,-5.55,-5.55,0,*53
1491455091.36,128,13.06,72776.0,-5.13,-5.69,-5.69,0,*5C
1491455092.6,129,13.06,72774.8,-5.13,-5.65,-5.65,0,*5D
1491455093.84,130,13.06,72778.0,-5.17,-5.69,-5.69,0,*51
1491455095.08,131,13.06,72776.0,-5.13,-5.65,-5.65,0,*54
1491455096.31,132,13.06,72776.0,-5.17,-5.81,-5.81,0,*53
1491455097.55,133,13.06,72778.3,-5.13,-5.69,-5.65,0,*5A
1491455098.79,134,13.06,72780.0,-5.13,-5.69,-5.69,0,*51
1491455100.03,135,13.06,72776.8,-5.13,-5.69,-5.65,0,*5C
1491455101.27,136,13.06,72780.8,-5.13,-5.69,-5.69,0,*53
1491455102.5,137,13.13,72782.3,-5.13,-5.65,-5.69,0,*5E
1491455103.74,138,13.06,72780.3,-5.13,-5.65,-5.65,0,*5D
1491455104.96,139,13.13,72782.8,-5.13,-5.65,-5.55,0,*5F
1491455106.18,140,13.06,72778.5,-5.13,-5.65,-5.55,0,*51
1491455107.41,141,13.13,72782.3,-5.13,-5.65,-5.69,0,*5F
1491455108.65,142,13.06,72778.8,-5.13,-5.69,-5.69,0,*50
1491455109.89,143,13.06,72776.8,-5.13,-5.69,-5.69,0,*51
1491455111.13,144,13.06,72780.0,-5.13,-5.69,-5.69,0,*56
1491455112.36,145,13.13,72782.0,-5.13,-5.77,-5.77,0,*57
1491455113.6,146,13.06,72778.5,-5.13,-5.77,-5.69,0,*5B
1491455114.83,147,13.06,72780.0,-5.13,-5.77,-5.77,0,*55
1491455116.07,148,13.06,72778.8,-5.13,-5.77,-5.77,0,*5A
1491455117.3,149,13.06,72778.0,-5.17,-5.81,-5.81,0,*5F
1491455118.54,150,13.06,72780.8,-5.13,-5.77,-5.77,0,*53
1491455119.78,151,13.06,72778.0,-5.17,-5.85,-5.81,0,*52
1491455121.02,152,13.06,72776.0,-5.17,-5.93,-5.85,0,*52
1491455122.26,153,13.06,72776.8,-5.13,-5.89,-5.89,0,*50
1491455123.5,154,13.06,72776.5,-5.13,-5.81,-5.77,0,*5E
1491455124.73,155,13.06,72782.0,-5.13,-5.77,-5.77,0,*56
1491455125.96,156,13.06,72778.8,-5.17,-5.73,-5.73,0,*51
1491455127.19,157,13.06,72780.3,-5.17,-5.81,-5.73,0,*5D
1491455128.43,158,13.06,72778.0,-5.17,-5.81,-5.81,0,*5F
1491455129.66,159,13.06,72778.5,-5.17,-5.73,-5.69,0,*55
1491455130.9,160,13.06,72782.5,-5.17,-5.69,-5.69,0,*54
1491455132.14,161,13.06,72780.3,-5.13,-5.69,-5.65,0,*5D
1491455133.38,162,13.13,72780.0,-5.17,-5.69,-5.69,0,*56
1491455134.61,163,13.06,72776.3,-5.13,-5.69,-5.65,0,*5F
1491455135.84,164,13.06,72778.0,-5.17,-5.73,-5.73,0,*50
1491455137.08,165,13.06,72780.5,-5.13,-5.77,-5.69,0,*5A
1491455138.32,166,13.06,72778.8,-5.13,-5.77,-5.65,0,*55
1491455139.55,167,13.06,72782.8,-5.17,-5.81,-5.81,0,*53
1491455140.79,168,13.06,72782.5,-5.13,-5.69,-5.69,0,*58
1491455142.02,169,13.06,72780.8,-5.17,-5.73,-5.69,0,*56
1491455143.26,170,13.06,72780.3,-5.17,-5.69,-5.69,0,*55
1491455144.5,171,13.06,72782.0,-5.13,-5.69,-5.65,0,*5C
1491455145.73,172,13.06,72776.0,-5.17,-5.73,-5.69,0,*5C
1491455146.97,173,13.06,72782.0,-5.13,-5.65,-5.65,0,*52
1491455148.2,174,13.06,72782.8,-5.13,-5.69,-5.65,0,*59
1491455149.44,175,13.13,72780.8,-5.17,-5.69,-5.69,0,*50
1491455150.68,176,13.06,72780.3,-5.13,-5.65,-5.65,0,*57
1491455151.92,177,13.13,72786.5,-5.13,-5.69,-5.65,0,*5A
1491455153.13,178,13.06,72780.0,-5.13,-5.65,-5.55,0,*5A
1491455154.33,179,13.06,72782.8,-5.13,-5.55,-5.51,0,*5C
1491455155.52,180,13.06,72780.0,-5.13,-5.55,-5.51,0,*5A
1491455156.72,181,13.13,72782.3,-5.13,-5.55,-5.51,0,*5B
1491455157.92,182,13.06,72778.8,-5.17,-5.55,-5.55,0,*58
1491455159.11,183,13.06,72782.0,-5.17,-5.55,-5.55,0,*59
1491455160.31,184,13.06,72778.8,-5.13,-5.55,-5.55,0,*5A
1491455161.51,185,13.06,72782.3,-5.13,-5.55,-5.51,0,*5F
1491455162.73,186,13.06,72782.3,-5.13,-5.65,-5.55,0,*5B
1491455163.92,187,13.13,72786.3,-5.13,-5.51,-5.55,0,*5D
1491455165.14,188,13.06,72778.8,-5.13,-5.65,-5.55,0,*55
1491455166.38,189,13.06,72782.8,-5.13,-5.69,-5.69,0,*57
1491455167.61,190,13.06,72780.3,-5.13,-5.69,-5.69,0,*5F
1491455168.85,191,13.06,72782.8,-5.13,-5.69,-5.69,0,*5E
1491455170.09,192,13.06,72780.0,-5.13,-5.69,-5.69,0,*5D
1491455171.32,193,13.06,72782.3,-5.13,-5.69,-5.77,0,*53
1491455172.56,194,13.06,72780.0,-5.13,-5.69,-5.69,0,*5B
1491455173.8,195,13.06,72784.0,-5.13,-5.69,-5.65,0,*56
1491455175.04,196,13.06,72780.8,-5.13,-5.65,-5.65,0,*59
1491455176.27,197,13.06,72782.0,-5.13,-5.65,-5.65,0,*58
1491455177.51,198,13.06,72780.5,-5.13,-5.65,-5.69,0,*5B
1491455178.75,199,13.06,72780.8,-5.13,-5.65,-5.65,0,*56
1491455179.98,200,13.06,72782.0,-5.13,-5.65,-5.65,0,*55
1491455181.22,201,13.06,72776.5,-5.13,-5.65,-5.69,0,*58
1491455182.46,202,13.06,72780.3,-5.13,-5.81,-5.65,0,*5D
1491455183.7,203,13.06,72776.5,-5.13,-5.77,-5.65,0,*55
1491455184.93,204,13.06,72780.3,-5.13,-5.77,-5.69,0,*5E
1491455186.17,205,13.06,72780.3,-5.13,-5.81,-5.77,0,*59
1491455187.4,206,13.06,72780.8,-5.13,-5.81,-5.77,0,*5A
1491455188.64,207,13.06,72780.0,-5.13,-5.77,-5.77,0,*52
1491455189.87,208,13.06,72778.5,-5.13,-5.81,-5.77,0,*54
1491455191.11,209,13.06,72776.0,-5.13,-5.69,-5.77,0,*53
1491455192.35,210,13.06,72774.3,-5.13,-5.69,-5.69,0,*54
1491455193.58,211,13.06,72772.0,-5.13,-5.65,-5.65,0,*55
1491455194.82,212,13.06,72772.5,-5.13,-5.77,-5.65,0,*55
1491455196.06,213,13.06,72774.8,-5.13,-5.77,-5.69,0,*58
1491455197.29,214,13.06,72772.3,-5.13,-5.69,-5.65,0,*5C
1491455198.53,215,13.06,72772.3,-5.13,-5.69,-5.65,0,*5D
1491455199.77,216,13.06,72772.8,-5.13,-5.69,-5.69,0,*52
1491455201.01,217,13.06,72770.5,-5.13,-5.65,-5.65,0,*53
1491455202.24,218,13.06,72774.3,-5.13,-5.65,-5.65,0,*5C
1491455203.48,219,13.06,72774.5,-5.13,-5.69,-5.69,0,*5D
1491455204.72,220,13.06,72778.0,-5.13,-5.69,-5.69,0,*57
1491455205.95,221,13.06,72776.0,-5.17,-5.73,-5.69,0,*59
1491455207.18,222,13.06,72772.5,-5.17,-5.69,-5.73,0,*5A
1491455208.42,223,13.06,72772.5,-5.13,-5.69,-5.69,0,*54
1491455209.66,224,13.06,72774.5,-5.13,-5.81,-5.69,0,*55
1491455210.89,225,13.06,72774.0,-5.13,-5.81,-5.77,0,*5B
1491455212.13,226,13.06,72776.0,-5.13,-5.81,-5.69,0,*57
1491455213.37,227,13.06,72780.0,-5.13,-5.77,-5.77,0,*50
1491455214.6,228,13.06,72774.8,-5.13,-5.81,-5.77,0,*56
1491455215.84,229,13.06,72772.5,-5.13,-5.77,-5.77,0,*5E
1491455217.07,230,13.06,72772.0,-5.13,-5.77,-5.69,0,*59
1491455218.31,231,13.06,72770.8,-5.13,-5.69,-5.69,0,*57
1491455219.55,232,13.06,72770.8,-5.13,-5.77,-5.77,0,*54
1491455220.79,233,13.06,72772.3,-5.17,-5.85,-5.81,0,*55
1491455222.03,234,13.06,72770.3,-5.17,-5.85,-5.81,0,*52
1491455223.27,235,13.06,72768.5,-5.17,-5.81,-5.85,0,*53
1491455224.51,236,13.06,72770.5,-5.17,-5.81,-5.81,0,*54
1491455225.75,237,13.06,72768.8,-5.17,-5.85,-5.81,0,*51
1491455226.98,238,13.06,72770.8,-5.17,-5.69,-5.77,0,*55
1491455228.2,239,13.06,72770.8,-5.13,-5.65,-5.55,0,*5C
1491455229.44,240,13.06,72770.0,-5.13,-5.65,-5.65,0,*51
1491455230.67,241,13.06,72770.8,-5.17,-5.73,-5.73,0,*54
1491455231.91,242,13.06,72768.5,-5.17,-5.69,-5.65,0,*5B
1491455233.14,243,13.06,72768.0,-5.17,-5.81,-5.73,0,*5B
1491455234.38,244,13.06,72768.8,-5.13,-5.77,-5.65,0,*56
1491455235.6,245,13.06,72772.8,-5.17,-5.73,-5.73,0,*50
1491455236.85,246,13.06,72770.8,-5.17,-5.85,-5.85,0,*53
1491455238.08,247,13.06,72768.5,-5.13,-5.77,-5.77,0,*56
1491455239.32,248,13.06,72770.0,-5.13,-5.77,-5.65,0,*5A
1491455240.56,249,13.06,72770.5,-5.13,-5.69,-5.65,0,*54
1491455241.79,250,13.06,72770.3,-5.13,-5.69,-5.65,0,*5C
1491455243.03,251,13.06,72770.0,-5.13,-5.69,-5.69,0,*51
1491455244.26,252,13.06,72764.5,-5.17,-5.77,-5.73,0,*52
1491455245.49,253,13.06,72766.5,-5.17,-5.73,-5.73,0,*57
1491455246.72,254,13.06,72772.8,-5.17,-5.73,-5.73,0,*50
1491455247.96,255,13.06,72768.3,-5.13,-5.69,-5.69,0,*55
1491455249.2,256,13.06,72764.5,-5.17,-5.69,-5.69,0,*52
1491455250.43,257,13.06,72768.3,-5.13,-5.69,-5.65,0,*5B
1491455251.66,258,13.06,72764.3,-5.17,-5.73,-5.73,0,*5C
1491455252.9,259,13.06,72768.5,-5.13,-5.65,-5.65,0,*59
1491455254.12,260,13.06,72770.8,-5.13,-5.65,-5.55,0,*50
1491455255.35,261,13.06,72768.3,-5.13,-5.65,-5.65,0,*52
1491455256.59,262,13.06,72768.5,-5.13,-5.69,-5.65,0,*5D
1491455257.83,263,13.06,72768.0,-5.17,-5.69,-5.69,0,*54
1491455259.05,264,13.06,72768.0,-5.17,-5.55,-5.61,0,*54
1491455260.25,265,13.06,72768.3,-5.13,-5.55,-5.55,0,*56
1491455261.44,266,13.06,72770.5,-5.13,-5.55,-5.55,0,*55
1491455262.64,267,13.06,72772.0,-5.13,-5.51,-5.55,0,*50
1491455263.88,268,13.06,72770.8,-5.17,-5.61,-5.61,0,*5F
1491455265.08,269,13.06,72768.5,-5.13,-5.55,-5.55,0,*5A
1491455266.27,270,13.06,72770.3,-5.13,-5.51,-5.51,0,*52
1491455267.46,271,13.06,72770.8,-5.13,-5.55,-5.51,0,*57
1491455268.66,272,13.06,72772.0,-5.13,-5.55,-5.55,0,*50
1491455269.86,273,13.06,72770.8,-5.13,-5.55,-5.55,0,*51
1491455271.05,274,13.06,72768.0,-5.13,-5.55,-5.51,0,*52
1491455272.25,275,13.06,72772.8,-5.13,-5.51,-5.55,0,*53
1491455273.44,276,13.06,72770.3,-5.13,-5.51,-5.55,0,*50
1491455274.64,277,13.06,72776.0,-5.13,-5.51,-5.55,0,*51
1491455275.85,278,13.06,72770.8,-5.11,-5.55,-5.51,0,*5C
1491455277.09,279,13.06,72770.5,-5.11,-5.65,-5.55,0,*5A
1491455278.34,280,13.06,72774.8,-5.11,-5.65,-5.55,0,*5C
1491455279.56,281,13.06,72772.8,-5.11,-5.55,-5.55,0,*5E
1491455280.75,282,13.06,72774.5,-5.09,-5.51,-5.51,0,*54
1491455281.99,283,13.06,72772.5,-5.11,-5.65,-5.51,0,*5B
1491455283.2,284,13.06,72778.5,-5.11,-5.51,-5.51,0,*5B
1491455284.42,285,13.06,72774.0,-5.11,-5.51,-5.55,0,*5E
1491455285.63,286,13.06,72772.3,-5.11,-5.51,-5.51,0,*59
1491455286.82,287,13.06,72778.0,-5.09,-5.51,-5.51,0,*51
1491455288.04,288,13.06,72776.8,-5.11,-5.55,-5.55,0,*57
1491455289.26,289,13.06,72776.3,-5.13,-5.69,-5.55,0,*5B
1491455290.5,290,13.06,72776.8,-5.11,-5.65,-5.55,0,*5D
1491455291.72,291,13.06,72774.8,-5.11,-5.51,-5.55,0,*5B
1491455292.94,292,13.06,72774.8,-5.11,-5.55,-5.51,0,*58
1491455294.16,293,13.06,72772.0,-5.11,-5.55,-5.55,0,*5D
1491455295.42,294,13.06,72778.3,-5.11,-5.65,-5.65,0,*5A
1491455296.68,295,13.06,72776.0,-5.11,-5.69,-5.69,0,*5B
1491455297.94,296,13.06,72776.8,-5.11,-5.65,-5.65,0,*58
1491455299.2,297,13.06,72776.0,-5.11,-5.65,-5.65,0,*59
1491455300.44,298,13.06,72772.0,-5.09,-5.69,-5.61,0,*57
1491455301.7,299,13.06,72774.5,-5.11,-5.65,-5.65,0,*57
1491455302.96,300,13.06,72774.5,-5.11,-5.65,-5.61,0,*52
1491455304.22,301,13.06,72774.8,-5.11,-5.69,-5.65,0,*5B
1491455305.47,302,13.06,72776.5,-5.11,-5.65,-5.55,0,*57
1491455306.68,303,13.06,72772.0,-5.11,-5.55,-5.51,0,*51
1491455307.87,304,13.06,72774.0,-5.09,-5.51,-5.51,0,*5B
1491455309.09,305,13.06,72774.0,-5.09,-5.61,-5.51,0,*59
1491455310.35,306,13.06,72770.0,-5.11,-5.65,-5.69,0,*5C
1491455311.58,307,13.06,72772.0,-5.09,-5.81,-5.69,0,*5E
1491455312.82,308,13.06,72768.8,-5.09,-5.65,-5.65,0,*57
1491455314.05,309,13.06,72770.3,-5.09,-5.61,-5.65,0,*52
1491455315.27,310,13.06,72768.8,-5.09,-5.61,-5.51,0,*5D
1491455316.48,311,13.06,72774.5,-5.09,-5.65,-5.51,0,*58
1491455317.7,312,13.06,72770.0,-5.11,-5.55,-5.51,0,*51
1491455318.92,313,13.06,72768.0,-5.11,-5.55,-5.55,0,*54
1491455320.14,314,13.06,72772.5,-5.11,-5.55,-5.55,0,*53
1491455321.35,315,13.06,72768.3,-5.09,-5.61,-5.51,0,*58
1491455322.57,316,13.06,72770.3,-5.11,-5.55,-5.55,0,*51
1491455323.78,317,13.06,72768.3,-5.11,-5.51,-5.51,0,*50
1491455324.97,318,13.06,72772.3,-5.09,-5.47,-5.51,0,*51
1491455326.19,319,13.06,72772.0,-5.11,-5.51,-5.51,0,*5E